RH
13 14 16 17 18 17 18 18 18 19 20 20 19 18 18 19 20 21 23 24 24 25 26 26 27 27 27 27 27 27 28 30 34 36 36 36 36 38 40 43 45 48 52 57 61 64 65 73 75 76 83 76 72 69 64 69 76 82 84 82 86 92 93 94 94 94 94 94 95 95 96 96 96 96 96 97 97 96 96 96 96 96 96 96 96 96
14 15 17 18 19 19 21 19 19 19 20 20 20 19 19 19 20 22 23 25 25 26 26 26 27 27 27 27 26 27 27 30 33 34 34 34 34 35 37 40 43 47 52 57 61 66 68 71 75 79 86 78 74 71 68 68 66 63 62 66 75 85 93 93 93 93 93 94 94 95 95 95 96 96 96 96 96 96 96 96 96 96 97 97 97 96
15 16 17 18 20 21 23 21 20 20 21 21 20 20 19 20 21 22 23 24 25 26 26 26 26 26 26 26 26 26 27 30 32 33 32 32 33 34 35 38 42 47 53 58 63 67 70 73 77 81 85 80 76 72 70 65 57 51 54 62 71 80 91 92 93 92 92 92 93 94 94 94 95 95 95 96 96 96 95 96 96 96 97 96 96 96
15 17 18 20 21 23 24 22 20 20 21 20 20 20 20 21 22 22 23 23 24 25 25 26 26 26 26 26 25 25 26 28 30 31 31 32 32 33 34 36 40 46 53 59 65 70 74 76 78 81 86 85 83 80 75 69 60 53 53 60 69 78 88 91 92 92 92 91 92 92 93 93 94 94 95 95 95 95 95 95 95 96 96 96 96 96
16 18 20 22 24 25 25 23 22 20 20 19 19 18 19 20 22 23 23 23 23 23 24 24 25 25 26 26 25 25 25 27 28 30 31 31 32 32 32 33 36 42 50 59 66 73 79 83 84 85 89 88 87 84 79 71 61 54 53 63 72 80 86 90 92 92 91 91 91 91 91 93 93 94 94 94 95 94 94 93 93 93 93 95 95 96
17 19 22 24 25 25 25 25 23 22 20 19 18 18 18 19 20 22 22 22 23 23 23 23 24 24 25 25 25 25 24 25 27 28 30 30 31 30 30 31 34 38 45 56 66 75 83 87 88 89 89 89 89 87 83 73 62 56 57 68 77 84 88 91 92 91 90 90 90 90 90 92 93 94 94 94 94 92 90 87 86 86 85 88 91 94
18 19 22 25 26 26 24 24 23 22 20 20 19 18 17 18 19 20 21 22 22 23 23 23 23 23 24 24 24 24 23 24 25 27 29 29 29 28 27 29 31 35 41 52 64 76 86 89 90 90 89 89 89 88 84 73 64 60 63 75 83 88 91 91 91 90 89 89 89 89 90 91 93 94 94 94 92 89 85 81 79 78 77 79 84 89
19 20 21 23 25 25 23 23 22 21 21 21 20 19 18 18 18 19 20 21 22 22 23 23 23 23 23 23 23 22 23 23 25 26 28 28 27 26 25 27 29 33 38 46 58 70 81 88 91 91 90 88 88 86 79 69 64 64 71 83 88 91 91 90 90 89 88 87 88 88 89 90 91 92 92 91 89 85 81 77 74 73 72 73 78 84
20 20 20 21 21 22 22 22 22 21 21 22 22 21 20 20 20 19 19 20 21 22 22 22 22 22 22 22 21 21 22 23 25 26 28 28 27 26 25 26 29 32 36 43 51 61 71 85 90 91 90 89 86 81 71 66 65 70 80 88 91 91 91 90 89 88 87 86 85 86 87 88 88 88 88 87 85 81 77 73 71 69 68 70 74 78
20 20 21 21 20 20 21 22 22 22 22 22 22 23 22 22 21 21 20 20 21 22 22 22 21 21 21 21 20 20 21 22 23 25 26 27 26 26 25 27 29 32 36 41 47 54 63 80 88 90 88 84 78 71 65 64 69 77 86 90 91 91 91 90 89 88 86 84 83 83 83 85 85 84 84 83 80 76 73 70 68 67 67 68 71 75
19 20 20 20 20 20 21 22 22 22 22 21 21 22 23 24 23 23 22 22 22 22 22 21 20 20 20 20 20 20 21 22 22 22 23 25 25 24 24 26 28 32 35 40 45 51 58 73 84 87 82 74 67 63 63 67 74 83 89 91 91 91 90 90 89 88 86 84 82 81 81 81 81 81 80 78 76 73 70 67 65 64 66 67 70 73
18 19 20 19 19 20 21 21 22 22 21 21 21 21 23 25 25 25 24 23 23 22 21 19 18 19 20 21 22 21 22 22 21 21 21 24 25 25 24 25 28 31 35 39 43 49 56 67 74 76 71 66 62 61 63 72 80 87 91 91 91 91 90 90 89 88 86 83 81 80 78 78 78 77 76 75 73 70 67 64 62 61 63 66 69 72
18 19 19 19 20 20 21 21 21 21 22 23 23 24 25 26 26 26 25 24 23 22 20 18 17 17 19 23 25 25 24 22 21 20 20 24 27 29 29 29 30 33 36 39 43 48 55 62 66 66 64 61 60 62 67 78 86 90 92 91 91 91 90 89 89 88 87 84 81 79 76 76 75 74 74 72 70 67 64 61 60 60 62 65 68 70
18 19 19 19 20 21 22 22 22 23 24 25 26 27 27 26 26 25 24 23 22 21 20 17 15 15 18 23 27 29 27 24 22 20 19 25 30 34 35 34 34 35 39 42 45 50 55 60 62 61 60 60 62 66 74 85 89 91 91 91 91 90 88 89 89 88 87 84 81 79 76 74 73 72 72 71 69 66 63 60 59 60 61 64 66 66
18 19 19 20 21 22 23 23 24 24 25 26 27 27 26 25 25 24 23 21 20 19 18 16 16 16 18 23 28 30 29 26 24 23 21 25 31 35 37 36 35 35 39 44 48 51 54 59 60 60 60 61 64 71 82 88 90 91 91 91 91 89 86 86 87 86 85 82 80 79 76 74 72 71 70 70 68 66 62 60 59 60 61 63 63 63
20 20 21 22 23 24 24 25 25 25 26 26 26 26 25 24 23 23 22 21 20 18 17 16 17 18 19 23 28 30 29 28 27 26 25 27 32 36 37 36 35 34 38 44 49 52 54 57 58 60 61 63 67 75 85 89 90 90 90 91 89 87 84 85 85 84 82 81 80 78 76 74 73 71 70 70 68 66 63 61 60 60 61 62 62 60
21 21 22 23 24 25 25 26 26 26 25 25 24 24 23 23 22 21 21 20 19 19 19 21 23 26 26 24 27 31 31 31 31 30 28 29 32 35 36 36 35 35 37 44 49 53 54 56 58 60 63 64 69 76 87 89 89 89 90 89 85 83 84 86 85 84 81 80 78 77 77 75 74 73 72 70 69 67 64 63 62 62 64 64 62 59
21 22 23 23 24 25 25 26 26 26 24 23 22 22 21 21 21 20 20 20 20 20 20 24 29 33 35 32 32 34 34 35 35 35 31 31 32 33 34 33 33 35 38 43 48 52 54 56 59 62 64 64 68 77 89 89 89 89 90 83 80 80 84 85 84 82 80 79 77 76 75 75 74 73 72 71 70 68 65 64 64 65 67 68 64 59
21 22 23 24 24 25 25 25 25 25 23 22 21 20 20 20 20 20 20 21 21 22 24 27 30 34 36 35 35 36 37 39 40 39 35 33 33 33 33 31 30 32 36 41 45 49 52 55 58 60 60 60 66 75 88 88 88 87 85 78 77 80 82 81 80 79 78 78 77 76 76 75 75 74 73 71 69 66 65 65 65 66 68 68 64 59
21 22 22 23 24 24 25 25 25 24 23 22 21 20 19 19 19 20 21 22 23 24 26 29 32 35 37 36 36 39 42 43 43 41 37 35 35 34 33 30 30 32 34 37 41 45 49 51 53 54 53 55 63 75 88 89 87 83 75 74 75 77 77 76 75 75 74 75 76 76 76 75 75 74 73 72 69 67 65 65 65 66 69 68 64 59
22 22 23 23 23 24 24 24 24 23 22 21 20 19 19 20 21 23 24 24 25 26 28 31 34 37 38 37 39 43 47 49 48 45 41 36 34 33 33 31 32 33 34 34 36 40 44 46 48 49 49 52 60 70 82 78 71 65 65 69 71 72 70 69 69 69 69 70 72 74 75 76 75 75 74 73 71 69 66 65 65 66 68 66 62 58
22 23 23 23 24 24 24 24 23 22 21 20 20 20 20 22 25 26 27 27 28 29 31 33 35 36 37 38 41 45 49 50 50 48 45 39 35 33 32 31 33 35 35 33 32 34 37 40 42 44 46 51 57 62 65 61 57 56 59 64 65 65 63 63 63 63 62 64 67 69 72 74 75 75 75 73 72 70 68 66 65 65 66 64 60 57
23 24 24 24 24 24 24 24 23 23 22 20 20 21 22 25 27 29 30 30 31 31 31 32 32 33 35 36 40 44 47 48 48 47 46 45 41 37 34 32 34 35 34 33 31 30 32 35 37 40 43 47 51 54 53 51 51 52 55 58 60 60 58 57 56 55 55 57 60 63 66 69 72 74 74 73 72 70 69 67 66 65 65 62 60 58
24 25 25 25 26 26 25 25 24 24 23 22 22 22 23 26 28 30 32 32 31 30 30 30 29 30 33 35 38 42 45 47 48 47 47 48 45 41 38 38 38 36 34 33 32 31 30 31 34 36 39 43 46 47 47 46 46 47 50 52 53 53 52 50 49 49 49 50 52 55 59 63 67 69 71 71 71 70 70 69 67 66 65 62 59 58
26 26 27 27 28 28 27 26 26 25 25 25 25 26 27 29 30 31 32 31 30 29 29 28 27 27 31 34 37 41 45 49 50 50 51 51 48 45 43 43 43 42 37 34 33 32 31 31 32 34 37 39 40 41 41 41 42 43 46 48 48 48 46 46 46 45 44 44 46 48 51 55 59 63 65 67 68 69 70 69 69 67 65 62 60 59
28 29 29 30 30 30 29 29 28 28 28 28 28 29 29 30 30 31 30 29 29 28 28 27 27 27 29 32 36 41 47 52 54 53 54 57 56 52 48 47 48 46 41 37 36 35 35 34 33 34 35 37 37 38 38 38 39 41 44 45 46 45 45 44 44 43 42 41 41 43 45 49 52 55 58 61 63 66 68 69 69 68 65 62 60 59
30 31 32 32 33 32 32 32 31 31 32 32 32 32 31 31 30 30 29 29 29 29 30 30 30 30 30 32 36 42 50 57 58 56 55 60 63 62 57 54 53 51 46 42 41 41 41 39 37 35 35 37 37 37 37 38 38 40 42 44 44 44 44 44 44 43 42 41 40 40 42 44 47 49 52 55 58 62 65 68 68 67 65 62 60 59
32 32 33 34 34 34 34 34 34 34 34 34 34 34 33 32 31 31 32 32 32 32 33 35 36 36 36 35 37 42 50 60 61 59 55 61 68 70 66 62 60 58 55 48 44 44 45 44 42 38 36 37 38 38 38 38 38 39 41 42 43 44 44 45 44 44 43 41 41 41 41 43 44 45 47 50 54 58 62 66 67 66 63 61 60 59
33 33 34 34 35 35 35 35 35 35 35 35 35 35 35 34 34 35 35 35 36 37 38 40 42 43 43 39 37 40 48 59 61 59 57 64 70 72 68 68 68 68 65 57 49 45 45 45 44 41 38 38 39 40 40 39 39 40 40 41 42 43 44 44 44 43 42 42 41 41 42 42 43 44 45 47 51 55 60 64 66 66 62 61 60 59
32 33 33 33 33 34 34 34 34 35 35 36 36 37 37 36 36 37 37 39 40 42 44 45 46 48 49 46 44 44 47 55 59 60 62 73 76 75 69 73 76 77 76 73 66 58 49 44 42 42 41 41 41 43 43 43 43 43 43 42 42 43 44 44 43 43 42 41 41 41 42 42 42 43 44 46 49 53 59 64 66 66 63 61 60 59
31 30 31 31 32 32 33 33 34 35 35 36 37 37 38 39 40 40 41 44 46 48 51 51 52 53 56 60 62 61 56 57 59 63 68 82 84 80 76 78 81 82 81 85 85 80 70 54 44 40 42 43 44 46 48 49 50 50 49 47 46 45 46 45 44 42 41 40 40 41 41 41 42 43 44 46 48 52 57 63 66 67 64 62 60 59
28 28 28 29 30 31 32 33 34 34 35 35 36 37 39 40 42 44 46 48 51 54 55 55 55 56 58 62 68 70 63 61 62 67 74 84 85 82 80 81 83 84 81 85 88 88 87 76 60 47 45 47 49 50 52 54 56 56 55 54 52 51 50 48 46 44 42 40 40 40 40 41 41 42 44 46 48 51 56 60 65 67 67 65 64 62
26 26 27 28 29 30 31 31 32 33 33 34 35 36 37 39 42 45 48 51 54 57 59 60 60 59 58 58 59 60 60 62 66 71 77 85 87 85 82 82 83 83 82 84 87 89 89 87 77 66 57 55 55 56 57 59 61 62 62 62 60 57 55 52 50 47 45 43 41 40 40 40 40 42 43 45 47 50 53 57 61 65 69 70 69 68
25 25 26 27 28 28 29 29 30 30 31 32 33 34 35 37 40 44 48 52 56 58 60 62 64 64 63 60 57 54 54 59 64 70 79 85 87 86 85 83 82 82 83 85 86 87 87 85 83 80 73 62 58 59 62 65 66 67 68 68 68 66 62 59 56 52 48 46 44 43 42 41 41 41 43 44 47 49 52 54 57 61 67 72 74 74
24 25 25 26 27 27 28 28 28 28 29 30 31 32 33 35 38 41 46 50 54 58 60 62 64 66 67 66 63 59 56 59 63 68 76 84 85 84 85 84 85 85 85 85 86 86 88 85 84 85 85 73 65 61 62 67 70 72 71 72 72 72 69 66 63 58 53 49 48 46 45 44 43 43 44 45 47 50 51 52 54 56 60 67 72 76
23 24 25 26 26 27 27 27 27 27 27 28 29 30 31 33 36 39 43 47 51 55 58 60 62 64 66 67 67 65 63 63 65 69 75 80 82 83 85 85 85 85 87 86 86 87 88 87 86 85 86 82 75 68 63 66 69 73 74 74 75 74 73 70 68 64 59 56 54 52 51 49 48 46 46 46 47 48 49 50 51 53 55 59 64 70
23 24 25 26 26 26 26 27 27 27 27 27 28 30 31 33 35 38 41 45 48 52 55 57 59 61 62 64 65 66 66 67 68 71 74 76 78 80 82 83 83 84 87 87 87 87 87 88 86 84 85 85 84 80 75 71 71 73 76 79 80 79 76 73 71 68 65 63 61 60 59 56 53 50 48 47 46 45 45 46 47 49 50 52 56 60
24 25 26 26 26 27 26 26 27 27 26 27 28 29 31 33 35 38 40 43 46 49 52 55 57 59 60 60 62 65 67 68 69 70 70 70 72 74 75 77 79 81 84 86 87 88 87 88 88 87 85 85 84 83 81 80 79 79 79 82 83 82 79 76 74 71 69 67 65 64 63 61 58 55 51 49 47 45 43 43 44 45 46 47 49 53
25 26 26 26 27 27 26 26 26 26 26 27 29 30 31 32 34 36 38 41 44 47 51 54 56 57 59 60 61 64 66 68 68 67 66 65 66 68 70 73 75 77 80 83 85 87 88 88 89 89 88 87 85 82 80 82 84 85 86 84 82 80 78 78 77 75 73 72 70 68 66 64 62 60 56 54 53 52 50 48 47 48 49 47 46 47
26 26 26 26 26 26 26 26 26 26 27 28 29 30 31 31 32 33 35 38 41 45 48 51 53 55 57 60 62 64 66 66 66 64 63 63 63 64 67 70 72 74 76 78 81 84 87 87 87 87 88 88 88 86 83 83 85 87 88 88 86 83 79 79 79 77 76 77 76 75 73 70 68 65 61 58 58 59 60 58 57 57 58 60 58 55
26 26 25 25 25 25 24 24 25 26 28 29 29 30 30 30 30 30 32 35 38 42 45 48 49 51 54 58 61 64 65 65 64 63 62 61 60 61 63 66 69 71 72 75 78 81 86 86 85 85 85 85 86 85 84 85 86 87 88 88 88 87 83 81 80 80 79 80 81 81 80 76 72 68 64 61 60 61 64 65 65 65 65 68 71 72
25 24 23 23 23 22 23 24 25 26 28 28 28 29 30 31 31 32 33 35 38 41 43 45 47 49 51 54 57 60 63 63 62 61 60 59 58 59 60 63 66 69 71 74 76 79 82 84 85 84 83 84 85 85 86 86 87 88 88 88 88 86 82 78 78 80 85 84 84 84 85 80 76 73 69 66 63 62 63 66 68 70 72 73 75 78
23 22 21 21 21 21 22 23 24 25 26 27 28 30 32 33 34 35 37 40 42 44 46 48 49 50 50 51 52 55 58 60 60 59 58 58 57 57 58 61 64 68 71 74 76 77 78 80 81 81 80 81 83 85 88 87 87 88 88 88 88 88 87 83 80 79 82 84 85 86 86 84 82 79 75 69 65 63 63 65 68 71 74 76 78 79
20 20 20 20 20 21 22 23 24 26 27 29 30 32 34 36 37 39 41 44 46 48 50 51 52 52 51 51 51 51 53 55 56 56 56 56 57 58 58 60 63 67 72 75 78 79 78 77 76 77 77 79 81 83 86 88 88 88 88 88 88 88 89 88 85 83 82 82 84 85 86 86 84 80 73 68 64 62 61 63 65 69 73 76 79 81
18 19 19 20 21 22 23 25 26 28 29 30 32 33 35 37 39 42 46 47 49 51 54 56 56 55 56 56 54 51 51 50 51 51 51 52 54 56 58 61 63 67 70 75 78 81 82 80 78 76 76 78 80 83 85 88 88 88 88 87 87 87 88 87 87 87 86 85 84 85 86 86 83 78 72 68 65 62 60 62 65 69 72 76 79 82
18 19 20 21 23 24 25 27 28 29 31 32 34 35 36 38 40 43 48 50 52 54 57 60 61 62 64 63 61 57 54 51 49 48 48 49 51 53 56 60 64 67 70 73 76 79 82 82 82 81 79 79 80 82 84 87 88 89 88 87 87 87 87 87 88 88 88 88 87 87 86 85 82 79 78 74 68 63 60 63 66 71 74 77 80 82
19 20 22 23 24 26 27 28 30 30 31 33 35 37 38 39 42 45 49 52 55 57 59 60 61 64 67 68 68 67 65 60 54 51 49 49 50 52 55 58 61 65 69 72 75 77 79 80 81 83 84 84 84 84 83 85 87 88 88 88 88 88 88 88 88 88 88 88 88 88 87 85 84 83 81 76 69 63 59 61 66 70 76 79 82 83
21 22 24 25 26 27 28 29 30 31 31 33 35 37 40 42 46 50 54 56 58 59 60 60 61 63 65 67 69 70 70 67 63 59 56 54 53 53 55 57 58 60 63 67 71 74 76 78 80 82 84 86 87 87 85 85 86 88 88 88 88 88 88 88 88 88 88 88 88 88 88 87 88 88 85 79 73 66 60 61 65 70 76 80 82 84
24 25 26 27 28 29 29 30 31 31 32 33 35 37 41 44 49 54 58 60 61 62 62 63 64 66 67 67 67 67 67 67 65 63 62 61 60 59 59 58 58 58 58 60 62 66 69 73 76 79 82 85 88 88 87 86 87 88 88 88 88 88 89 88 88 88 89 89 88 88 88 89 89 89 88 86 82 76 66 64 65 68 74 78 82 83
26 27 28 29 30 30 30 31 32 32 33 34 36 38 41 45 50 54 59 61 62 63 63 65 67 68 70 69 68 67 67 67 66 66 66 67 67 67 67 66 64 63 60 59 59 60 62 66 69 72 76 81 86 88 87 87 87 87 88 88 88 89 89 89 89 89 89 89 88 88 88 88 88 88 88 88 86 83 76 69 66 67 71 76 79 81
27 28 29 30 31 31 32 32 33 33 34 35 37 39 42 46 51 55 59 61 62 62 62 64 66 69 72 71 69 68 68 68 68 69 69 70 71 73 74 75 76 76 75 73 71 69 70 71 70 68 66 71 77 83 86 87 88 88 88 89 89 89 89 89 89 89 89 89 89 89 89 88 87 87 88 89 88 87 84 77 71 69 70 74 77 79
Wind_Speed
17 17 18 19 20 20 21 21 22 22 22 21 20 19 18 18 18 18 17 18 18 19 20 20 20 21 22 22 23 24 24 25 26 27 27 26 26 25 24 24 24 23 23 24 24 24 24 24 23 23 23 23 24 23 23 23 22 22 23 23 23 23 23 23 23 24 24 24 24 24 24 23 23 23 23 23 23 23 23 22 23 23 23 23 23 22
17 17 18 19 20 20 21 21 21 21 21 20 20 19 18 18 18 18 17 17 18 19 20 21 21 22 22 23 23 24 25 26 26 27 27 27 26 25 24 23 23 22 22 23 23 23 23 23 23 23 23 24 24 24 24 23 23 23 23 23 23 23 23 24 24 24 24 25 25 24 24 23 23 23 23 23 23 23 23 23 23 23 23 23 23 23
17 17 17 18 19 20 21 21 20 20 20 19 19 19 18 18 18 18 18 18 18 19 20 21 22 23 23 23 24 25 25 26 26 27 28 27 26 25 24 23 22 21 21 22 22 22 23 23 22 22 22 23 24 24 24 24 25 25 24 23 23 23 23 24 24 25 25 25 25 24 24 23 23 23 23 23 23 24 24 24 23 23 23 23 23 23
17 17 18 19 19 19 20 20 20 19 18 18 18 18 18 18 19 18 18 18 18 19 20 22 23 24 24 24 25 25 26 26 27 28 28 28 27 25 24 23 22 21 21 21 21 22 22 22 22 22 22 22 23 24 24 24 25 25 24 23 23 23 24 24 24 25 25 25 24 24 23 22 23 23 23 23 23 24 23 23 24 24 23 23 23 23
17 17 18 19 19 19 19 19 20 19 18 17 17 18 18 19 19 19 19 18 18 19 21 22 24 25 26 26 26 26 27 27 28 28 28 28 27 25 24 23 22 21 20 20 20 21 21 22 22 22 22 22 22 23 23 24 25 25 25 24 23 24 24 24 25 25 25 25 24 24 23 22 22 22 22 23 23 23 23 23 23 23 23 23 23 24
16 17 18 18 18 18 19 19 20 20 19 18 18 17 18 18 19 20 20 21 21 21 21 23 24 25 26 27 27 28 28 28 29 29 28 28 26 25 25 24 23 21 20 19 20 20 21 21 21 22 22 22 22 22 23 24 25 25 24 24 24 24 25 25 25 25 25 25 24 24 23 22 22 22 22 23 23 23 23 22 22 22 22 22 23 23
16 17 18 18 18 18 18 19 20 20 21 21 20 19 18 17 18 19 21 22 23 23 24 24 25 25 27 28 28 29 29 29 30 29 29 27 26 26 26 25 24 23 21 20 20 20 21 21 21 21 21 21 21 21 22 23 24 24 24 24 24 25 25 25 26 26 25 25 24 24 23 23 23 22 22 22 23 23 23 23 22 22 22 22 22 23
17 17 18 18 18 18 18 18 19 20 21 22 22 22 21 19 18 19 20 22 23 25 26 27 27 27 27 28 29 30 30 31 31 30 29 28 27 27 27 27 26 25 23 21 20 20 20 20 21 21 21 21 21 21 21 22 22 23 23 24 24 25 25 26 26 26 26 25 24 24 23 23 23 22 22 22 23 23 23 23 23 23 22 22 22 22
17 17 17 18 18 19 19 19 19 20 20 21 22 24 25 24 22 21 21 22 23 25 27 29 30 30 29 29 29 30 31 31 30 30 29 28 28 28 29 29 28 27 25 23 21 20 19 20 20 21 21 21 21 21 20 20 21 22 23 24 25 25 26 26 26 26 26 25 25 24 23 23 23 23 23 23 23 23 24 24 24 23 23 22 22 22
17 17 17 18 18 19 19 20 20 20 20 20 21 22 24 26 27 26 25 25 25 26 27 29 31 32 32 31 30 31 31 30 30 29 28 28 29 30 30 31 31 29 27 24 22 20 19 20 20 21 21 22 21 20 19 19 20 22 24 24 25 26 26 26 26 26 26 26 25 25 24 24 23 23 23 24 24 24 24 24 24 24 24 23 22 22
18 18 18 18 18 18 19 19 20 20 20 20 20 21 22 25 27 29 30 30 30 29 29 30 31 32 33 32 32 32 31 31 30 29 28 29 30 31 32 32 32 31 29 26 23 21 20 20 20 21 22 22 21 19 18 18 20 22 24 24 25 26 26 26 26 26 26 26 25 25 24 24 24 24 24 24 25 25 25 25 24 24 24 23 23 22
18 18 19 19 19 19 19 19 19 20 21 22 23 24 25 26 27 29 31 32 33 33 32 32 32 32 32 32 32 32 32 32 31 31 31 31 32 33 34 34 34 33 30 27 25 23 22 21 21 22 22 21 19 17 16 18 21 22 23 24 25 26 26 26 26 26 26 25 25 25 25 24 24 24 25 25 25 25 24 24 24 24 24 24 23 23
19 19 19 19 20 20 20 21 21 22 23 24 26 27 28 28 28 29 30 32 33 34 34 34 33 32 31 31 31 32 32 32 32 32 33 34 35 36 37 37 37 35 32 29 27 25 24 23 23 23 22 20 17 15 16 19 21 23 23 24 25 26 26 26 25 25 25 25 25 25 25 25 25 25 25 25 25 24 24 24 23 23 23 24 23 23
19 19 19 19 20 21 21 22 22 23 24 25 25 26 27 27 28 30 31 32 33 33 34 34 34 33 32 31 31 31 32 32 33 33 34 35 36 37 38 38 38 36 34 31 29 27 26 25 24 23 20 17 14 14 17 20 22 23 23 24 25 25 25 25 25 25 25 25 25 25 25 25 25 24 24 24 24 24 23 23 23 23 23 23 23 23
20 20 20 20 21 21 21 22 22 23 23 24 24 25 26 27 29 30 32 33 34 34 35 35 34 34 32 31 31 31 32 33 34 35 36 36 36 37 38 39 38 36 34 31 30 28 26 25 24 22 18 15 13 14 18 21 22 23 24 24 25 25 24 24 25 25 25 24 25 25 25 25 24 24 24 24 24 23 23 22 22 22 23 23 23 23
20 20 20 20 21 21 21 22 22 23 23 24 24 26 28 29 30 31 32 33 34 35 35 36 37 36 34 32 31 31 32 33 34 36 37 38 37 37 37 38 38 36 34 31 30 28 26 24 22 19 16 13 13 15 18 21 22 23 24 24 24 23 23 24 24 24 24 24 24 24 24 24 24 24 24 24 24 23 23 22 22 22 22 23 23 22
20 20 20 20 20 21 21 21 22 22 23 24 25 26 27 29 30 31 32 32 33 34 35 35 36 37 37 35 32 31 32 33 34 36 37 38 37 37 37 37 38 37 34 32 30 28 25 23 20 17 14 12 13 15 18 21 22 23 23 23 23 22 23 23 24 24 24 23 23 23 24 24 24 24 24 24 24 23 22 22 22 22 22 22 22 21
19 19 19 19 20 20 21 22 23 23 24 25 26 26 27 28 29 30 30 31 32 33 33 34 33 34 35 35 34 32 32 33 34 35 37 38 38 37 37 37 37 36 35 32 30 27 23 20 18 15 13 12 13 16 19 21 22 23 23 22 21 21 22 23 23 23 23 23 23 23 23 23 24 24 24 23 23 23 23 22 22 22 22 22 22 21
19 19 19 19 20 20 21 22 23 24 25 26 27 27 28 28 29 29 29 30 30 31 32 32 32 32 32 32 32 31 32 32 33 34 36 38 38 38 37 38 37 37 35 33 29 25 22 19 17 15 13 12 14 16 19 21 22 22 21 20 20 21 22 22 22 22 22 22 22 22 22 23 23 23 23 23 23 23 23 22 22 22 22 22 22 21
19 19 19 20 20 20 21 22 23 24 25 26 26 27 28 28 28 29 29 29 29 30 30 30 30 30 30 30 30 30 31 31 32 33 36 38 38 38 38 38 38 38 36 33 29 25 22 20 18 17 15 15 16 18 20 21 21 20 19 19 20 21 21 22 22 21 21 21 21 21 22 22 22 23 23 23 23 22 22 22 22 22 22 22 22 21
19 19 19 20 20 21 21 22 23 24 24 25 26 27 27 28 28 28 28 29 29 29 29 29 29 29 30 29 28 28 29 29 31 33 36 38 38 38 38 38 39 38 37 34 29 25 23 21 21 20 19 18 19 19 20 20 18 17 17 18 19 20 21 21 21 21 20 20 20 21 21 21 21 22 22 22 22 22 22 22 22 22 22 22 22 21
19 19 19 20 20 20 21 22 22 23 24 25 26 26 27 28 28 28 28 28 29 29 29 28 28 28 29 28 27 26 27 28 30 33 36 38 39 38 38 39 39 38 37 35 31 26 24 23 23 22 22 21 20 20 18 17 15 15 16 18 19 20 20 20 20 20 20 20 20 20 20 20 21 21 21 22 22 22 22 22 22 22 22 22 22 21
19 19 19 20 20 20 21 22 22 23 23 24 24 24 25 26 26 27 27 27 27 28 28 28 28 28 28 28 27 26 27 29 31 33 35 37 38 39 39 39 39 38 38 36 33 29 26 26 25 25 24 23 21 19 17 16 15 15 17 18 19 20 20 20 20 20 19 19 19 19 19 19 20 20 20 21 21 21 21 21 21 21 22 22 22 22
19 19 19 20 20 21 21 22 22 23 23 23 23 23 23 23 24 24 25 25 26 26 27 28 28 29 29 29 27 26 28 30 32 34 35 37 38 38 39 40 40 39 39 37 34 32 29 28 28 27 26 24 22 20 18 17 17 17 18 19 20 21 20 20 20 20 19 19 19 19 19 19 19 19 20 20 20 21 21 21 21 21 21 22 22 22
19 19 19 20 20 21 21 21 21 22 22 22 22 23 23 23 23 23 24 24 25 26 27 29 30 31 31 31 29 28 29 31 33 34 35 36 38 38 38 39 40 40 40 38 36 33 32 31 30 29 27 25 23 22 21 20 20 20 21 21 22 21 21 20 20 20 20 19 19 19 18 18 18 19 19 19 20 20 20 20 21 21 21 21 21 21
19 19 19 19 20 20 20 20 20 20 21 21 22 22 23 23 23 23 24 25 26 28 29 30 31 32 32 32 31 30 30 32 33 34 35 36 37 38 38 39 40 40 41 40 38 35 34 33 32 31 29 27 25 24 24 24 24 23 23 24 23 23 22 21 21 21 20 20 19 19 18 18 18 18 18 19 19 19 19 20 20 20 21 21 21 21
18 18 18 18 18 18 18 18 19 19 20 20 21 22 23 23 23 24 25 26 27 28 29 31 31 32 32 32 31 30 30 31 32 34 35 35 36 37 38 39 40 41 41 41 39 37 35 34 34 33 31 29 27 27 26 26 26 26 26 25 25 24 24 23 22 22 21 20 20 19 18 18 18 18 18 18 18 18 19 19 19 20 20 21 21 21
18 17 17 17 17 18 18 18 19 19 20 20 21 22 23 23 24 25 26 27 27 28 29 30 30 31 32 32 31 30 30 31 32 33 34 35 35 35 37 39 40 41 41 42 40 38 35 34 34 34 32 31 30 29 29 28 28 28 27 27 27 26 25 25 24 23 22 21 20 19 19 19 19 18 18 18 18 18 18 18 19 19 20 20 20 20
17 16 17 17 17 18 18 19 19 20 20 21 21 22 23 23 24 24 25 26 26 27 27 28 29 30 30 30 30 29 29 30 31 33 34 35 35 36 37 38 39 40 41 42 42 40 36 34 34 34 34 32 31 31 31 31 31 30 29 29 28 28 27 26 25 24 23 22 21 20 20 19 19 19 19 18 18 17 17 18 18 19 19 19 19 20
16 16 17 17 18 18 19 19 20 20 20 21 21 22 22 23 23 23 24 25 25 26 26 27 27 28 29 30 30 30 29 29 30 32 34 34 35 36 37 38 38 38 38 39 40 40 39 37 36 35 35 34 33 33 33 33 33 33 32 31 30 30 29 28 27 26 24 23 22 21 20 20 20 20 19 19 18 17 17 17 17 18 18 18 18 19
16 16 17 18 18 19 19 20 20 20 20 21 21 21 22 22 22 23 23 23 23 24 24 25 25 26 27 29 29 29 30 30 30 32 33 33 34 35 36 37 37 36 36 34 34 35 37 39 39 37 35 35 34 34 34 35 35 35 35 34 33 32 32 30 29 27 25 24 23 22 21 21 20 20 20 19 18 17 16 16 16 17 17 18 18 18
16 17 18 18 19 19 20 20 20 20 20 20 21 21 21 21 21 22 22 22 22 22 23 23 23 24 24 26 26 27 28 29 30 31 32 33 33 34 35 35 36 35 34 32 29 29 31 36 39 39 37 36 35 35 34 35 36 36 36 36 35 35 34 33 31 30 28 26 25 23 22 22 21 21 20 19 18 17 16 16 15 15 16 17 17 17
17 18 18 19 19 19 20 20 20 20 21 21 21 21 21 21 21 21 21 21 21 21 21 22 22 23 23 24 24 25 26 28 29 29 30 31 33 33 34 34 35 35 34 33 30 28 28 32 36 39 39 37 36 35 35 35 36 36 36 36 36 36 35 35 33 32 30 29 27 26 25 23 22 21 20 19 18 17 16 15 14 14 14 16 17 17
18 18 18 19 19 19 20 20 20 21 21 21 21 21 21 21 20 20 20 20 20 20 20 20 21 22 23 24 24 25 26 27 27 28 29 30 31 32 33 33 34 34 34 34 33 32 32 33 34 36 37 38 37 35 35 35 36 36 37 36 36 36 36 36 35 33 32 31 30 29 28 26 25 23 21 20 18 17 16 15 14 13 13 14 16 17
18 18 19 19 19 20 20 20 20 21 21 21 21 21 21 21 21 20 20 20 19 19 19 19 19 20 21 22 24 25 26 26 27 27 27 28 29 30 31 31 31 32 33 33 33 34 34 34 34 33 35 37 37 36 35 35 36 36 37 36 36 36 36 36 36 34 33 32 31 31 30 29 28 26 24 22 20 19 18 16 15 14 13 13 14 15
18 19 19 20 20 20 20 21 21 21 21 21 21 21 22 21 21 21 20 19 19 19 18 18 18 18 18 19 21 22 24 25 26 26 25 26 27 28 29 29 29 29 30 31 32 33 34 35 34 33 33 35 36 37 37 37 36 37 37 37 37 36 37 36 36 35 34 33 33 33 32 32 30 29 26 24 22 20 18 17 16 15 14 13 13 13
18 19 19 20 20 21 21 21 21 21 21 21 21 21 21 21 21 20 20 19 19 19 18 18 17 17 17 18 19 21 22 24 24 24 24 24 24 25 26 27 27 27 28 29 30 32 33 34 35 34 33 33 34 35 37 38 38 38 38 37 36 36 37 36 36 35 34 34 34 34 34 34 33 31 29 26 23 20 18 17 16 16 15 15 14 14
19 19 20 20 21 21 21 21 21 21 21 21 21 21 21 21 21 20 19 19 19 19 19 19 18 17 17 18 19 21 22 22 23 23 22 23 23 24 25 26 26 26 26 27 28 29 31 32 33 33 33 33 33 34 35 36 38 39 39 38 37 36 36 36 36 35 35 34 34 35 35 35 35 34 32 29 26 23 21 19 18 17 16 16 15 15
19 20 20 21 21 22 22 22 21 21 21 21 20 20 20 20 20 19 19 19 19 20 20 20 19 19 19 19 20 21 21 22 22 22 23 23 23 24 25 26 27 27 26 26 27 27 28 29 29 30 32 33 34 35 35 35 36 37 38 39 38 38 37 36 36 35 35 35 35 36 36 36 36 35 34 32 30 28 26 24 22 21 20 20 19 17
20 20 21 21 21 21 22 21 21 21 21 20 20 20 20 19 19 18 18 19 19 20 20 20 20 20 20 21 21 22 22 22 23 23 23 24 24 24 25 25 26 27 27 27 27 27 27 27 28 28 28 30 32 33 34 34 34 35 36 37 38 38 38 36 35 35 35 35 36 37 37 37 37 36 36 34 33 31 30 28 27 26 25 25 25 24
20 20 21 21 21 21 21 21 21 21 21 20 20 20 20 20 19 19 19 19 20 21 21 21 21 21 21 22 22 23 23 23 24 24 24 24 25 25 25 25 26 27 27 28 27 27 26 27 27 28 28 29 30 32 33 33 33 33 33 34 36 37 37 36 35 35 35 36 36 37 37 38 38 37 36 35 33 32 31 30 29 28 27 27 27 27
20 20 21 21 21 21 21 21 21 21 21 20 20 20 20 20 20 20 21 21 21 22 22 23 23 23 24 23 23 24 24 25 25 25 25 25 25 25 25 25 26 26 27 28 28 28 27 26 26 27 27 28 29 31 32 33 33 32 32 33 35 37 37 36 35 35 36 36 37 37 37 38 39 38 37 36 34 32 31 31 30 29 29 28 27 27
20 20 20 21 21 21 21 21 21 21 21 20 20 20 20 20 20 21 21 22 22 23 23 23 24 25 25 26 26 26 26 26 26 26 26 26 26 26 26 26 26 27 27 28 29 29 28 27 26 25 25 26 27 29 31 32 32 32 32 32 33 34 35 36 37 36 36 36 37 37 38 38 39 38 37 36 34 33 32 31 30 30 29 29 29 28
19 20 20 21 21 21 21 22 22 22 22 21 21 20 21 21 21 21 21 22 22 23 23 24 24 25 26 27 27 28 27 27 27 27 27 27 27 27 27 27 28 28 28 28 29 29 29 28 27 26 25 25 26 27 29 31 32 32 32 32 32 31 32 34 36 37 38 38 37 38 38 38 39 38 37 36 34 33 32 31 31 30 30 30 29 29
19 20 20 21 21 22 22 22 22 22 22 21 21 21 21 21 21 21 22 22 23 23 24 25 25 26 28 28 29 29 29 29 28 28 28 28 28 28 28 29 29 29 29 28 28 28 28 28 28 28 27 27 26 27 28 30 32 33 33 33 32 32 32 33 34 36 37 38 38 38 38 38 38 38 38 37 36 34 33 32 32 31 31 31 30 30
19 20 20 21 21 22 22 23 23 22 22 22 21 21 21 21 21 21 22 22 23 24 24 25 26 27 28 29 30 30 30 30 30 30 29 29 29 29 30 30 30 30 30 30 29 28 28 27 28 28 29 28 28 28 29 30 32 33 34 34 33 34 34 34 34 35 36 37 38 38 38 38 38 38 38 37 36 35 33 32 32 32 32 32 31 30
20 20 21 21 21 22 22 22 23 22 22 22 21 21 21 21 21 22 22 22 23 24 24 25 26 27 28 29 30 31 32 32 32 31 31 31 31 31 31 31 31 31 31 31 31 30 29 28 27 27 27 28 28 29 30 31 32 33 34 34 34 34 34 35 35 35 35 36 37 38 38 38 38 38 38 37 37 36 34 33 32 32 32 33 32 31
20 21 21 21 22 22 22 23 23 22 22 22 21 21 21 21 22 22 23 23 24 24 25 25 26 27 28 28 29 30 31 32 32 32 32 32 32 32 32 32 32 32 32 32 32 31 30 29 27 26 25 26 27 29 31 33 33 33 33 34 34 34 35 35 36 36 36 36 36 37 37 37 37 37 37 38 38 37 35 34 33 32 32 33 33 32
20 21 21 21 22 22 22 23 22 22 22 22 21 21 20 21 22 23 23 24 24 25 25 26 27 28 28 29 29 29 30 31 31 31 32 32 33 33 34 34 34 34 34 34 34 34 33 31 29 26 25 25 26 28 32 33 34 34 34 33 33 34 35 35 36 36 36 37 36 36 36 35 35 35 35 36 38 38 37 35 34 33 32 33 33 32
20 20 21 21 22 22 22 22 22 22 22 22 21 21 20 21 22 22 23 24 24 25 25 26 27 27 28 29 29 30 30 31 31 31 31 32 33 34 34 35 36 36 37 37 37 37 36 35 32 29 26 26 26 28 32 34 35 35 35 34 34 34 34 35 36 36 36 36 36 36 36 36 35 34 34 35 36 37 38 37 35 33 33 33 32 31
19 20 21 21 22 22 22 22 22 22 22 21 21 21 21 21 22 23 24 25 25 25 26 26 26 27 28 29 30 30 30 31 31 31 31 31 32 33 34 34 35 36 37 38 39 39 39 39 37 34 31 28 28 29 31 33 35 36 35 35 35 34 34 35 35 35 35 35 35 36 36 36 35 34 33 34 35 36 37 37 36 35 34 33 33 32
Wind_Direction
357 356 356 357 359 3 7 10 9 7 7 7 8 8 10 13 15 16 15 13 11 10 10 11 12 11 10 8 6 5 5 5 3 359 356 353 351 349 348 348 349 350 349 348 346 345 344 343 343 342 342 341 341 342 342 343 343 344 344 345 346 347 347 347 346 346 345 344 344 344 344 345 346 346 346 345 345 344 344 345 346 347 347 346 344 345
357 358 359 0 2 5 8 12 13 11 8 8 8 8 10 12 15 16 17 16 13 11 9 9 9 9 9 7 5 4 5 4 2 359 355 353 351 349 348 348 349 349 349 348 347 345 344 343 343 342 341 341 341 341 342 342 342 343 345 346 347 347 347 347 347 346 345 344 344 345 345 346 347 347 347 346 346 345 344 345 347 347 347 346 345 346
358 1 3 5 7 8 8 10 13 14 12 10 9 9 9 12 14 15 15 15 14 12 10 8 7 7 6 5 4 3 3 3 1 358 355 353 351 349 347 347 348 349 349 348 347 346 345 344 343 342 341 340 340 340 340 340 341 343 345 347 348 348 347 347 347 346 345 344 344 345 345 346 347 348 348 347 346 345 344 345 346 347 347 346 346 348
1 4 6 10 11 11 9 9 12 15 15 13 11 10 10 12 13 14 14 13 12 11 10 8 6 5 4 3 2 2 2 1 359 357 355 353 351 349 348 348 349 350 349 348 347 346 345 344 343 343 341 340 339 339 339 339 340 342 345 347 348 348 348 348 347 346 345 344 344 345 346 347 348 348 348 347 346 345 345 345 345 346 346 346 347 348
4 7 10 13 13 11 10 10 11 13 16 16 15 14 12 12 12 11 11 11 11 11 10 8 6 4 2 0 0 360 360 359 358 357 356 354 352 350 350 350 350 351 350 349 347 345 343 342 342 342 341 340 339 338 337 337 338 341 345 347 348 348 348 348 347 345 345 345 345 346 347 347 348 347 347 346 345 344 344 344 345 345 346 346 347 348
9 10 13 16 15 13 11 9 9 10 12 14 15 16 16 13 11 9 8 8 8 9 9 8 6 3 1 359 358 359 359 358 358 358 357 355 353 353 353 353 353 353 352 350 347 344 342 341 341 341 340 339 338 337 336 335 337 341 346 348 348 348 348 347 345 345 344 345 346 347 347 348 347 347 346 345 343 342 342 343 344 344 345 346 348 349
14 14 15 16 17 16 14 12 10 9 8 9 10 12 15 15 13 10 8 7 6 5 6 6 6 4 1 358 358 358 358 358 358 358 358 357 355 355 356 357 357 356 355 352 348 344 341 340 340 340 339 338 338 337 335 334 337 342 348 348 347 346 346 345 344 344 344 345 346 347 348 348 347 346 345 343 341 339 340 341 343 344 345 346 348 348
16 16 18 16 14 14 15 15 14 11 9 7 5 5 7 10 12 11 10 7 5 4 2 2 3 2 1 359 357 357 358 358 359 359 359 359 358 357 358 359 359 359 357 355 351 346 343 341 340 340 339 338 337 336 333 334 339 345 349 348 346 345 344 344 343 344 344 344 345 346 347 347 346 345 344 342 341 340 340 342 344 345 346 347 348 348
18 17 19 18 16 13 13 15 15 14 12 9 6 3 2 2 4 6 8 8 7 5 2 0 360 360 0 359 358 358 359 359 359 360 1 1 0 360 360 0 1 0 359 357 354 350 346 343 340 339 337 337 336 334 333 336 344 349 349 347 345 344 343 343 343 343 343 344 345 346 346 346 345 344 343 342 342 342 343 344 345 346 347 347 348 348
20 19 19 20 19 17 14 13 12 12 12 11 9 6 2 360 359 360 2 4 5 5 4 1 359 359 359 359 359 359 359 358 359 1 3 3 2 1 1 1 1 1 359 358 356 353 350 345 341 338 336 335 334 334 335 341 348 351 349 346 344 343 342 342 342 342 342 344 345 345 346 345 345 344 343 343 343 344 345 346 346 346 346 347 348 348
22 21 21 20 19 18 17 15 12 9 8 8 8 8 6 3 0 359 359 360 1 2 2 2 1 360 359 359 359 359 358 358 359 2 5 5 4 2 1 1 1 0 359 358 356 355 353 348 343 339 336 335 334 336 340 347 351 350 348 344 342 341 341 341 341 342 342 343 344 345 345 345 344 344 344 344 344 345 346 346 346 345 345 346 347 347
24 22 20 19 18 17 16 15 12 9 6 5 5 6 7 5 3 1 360 359 358 358 359 0 1 2 2 0 359 358 357 357 358 1 5 7 5 2 1 0 0 360 359 357 357 356 354 350 344 339 337 336 337 340 346 351 352 349 346 343 340 340 340 340 341 341 342 343 343 344 345 345 344 344 344 344 345 345 345 345 345 345 344 345 346 346
26 23 20 18 17 16 15 13 11 9 8 7 6 6 5 3 2 1 360 359 358 357 357 357 360 2 4 3 0 358 356 356 357 1 5 7 6 2 360 359 359 359 358 358 357 357 354 350 345 341 339 339 340 345 352 353 351 348 344 341 339 338 338 339 341 341 342 343 343 344 344 345 345 344 344 344 344 345 345 345 345 345 345 345 345 346
27 23 20 18 16 15 13 12 11 11 10 8 7 5 3 2 1 360 358 357 357 356 356 356 358 1 4 4 1 358 356 355 356 0 4 7 5 2 358 356 356 357 358 357 358 357 354 350 345 343 342 342 346 352 356 354 351 347 342 339 337 337 338 339 340 341 342 342 343 343 343 344 344 344 344 344 344 344 344 344 345 345 345 345 346 346
27 23 20 17 16 14 13 12 11 11 10 8 6 4 2 2 1 360 358 357 356 356 356 356 357 1 5 5 2 357 356 355 357 360 3 5 4 1 356 354 354 356 358 358 358 357 354 350 347 345 345 346 353 359 358 355 350 345 340 337 336 337 338 339 340 341 341 342 342 342 342 343 343 344 344 344 344 344 344 344 345 345 345 345 345 345
26 23 20 17 15 14 13 12 11 10 8 6 5 4 3 2 1 360 358 356 356 356 356 357 357 358 1 4 2 359 357 356 357 359 360 2 2 0 356 353 353 356 359 360 359 357 355 352 349 348 348 351 358 1 360 355 350 343 338 336 335 337 339 341 341 340 340 341 341 342 341 342 343 343 344 344 344 344 344 344 344 344 345 345 345 345
26 23 21 18 15 13 12 11 10 9 7 6 5 5 4 2 0 359 358 356 356 357 358 359 358 357 357 360 1 360 358 357 358 358 357 358 359 359 356 353 353 357 1 2 1 359 357 355 353 352 351 355 1 2 360 354 347 340 336 335 336 338 341 342 341 340 339 340 341 341 341 341 341 342 342 343 343 343 343 343 343 344 344 344 344 344
25 23 21 19 16 13 10 9 8 7 6 5 4 4 4 3 1 359 358 357 357 358 359 360 359 357 355 356 358 359 358 358 357 355 354 355 357 358 356 355 356 359 3 4 3 2 1 360 358 356 354 356 1 1 357 350 343 338 335 335 338 341 343 342 340 339 338 339 340 340 341 341 341 341 340 341 341 342 342 342 342 342 343 343 344 343
23 21 20 18 16 14 11 9 7 5 4 4 3 2 2 2 1 360 359 359 359 359 359 360 360 359 357 357 357 358 358 358 355 352 351 352 356 358 356 356 358 2 5 6 6 5 6 5 3 0 357 357 360 359 353 346 340 337 336 338 341 343 343 341 340 339 338 339 339 340 340 341 340 340 340 339 340 340 341 341 341 341 342 342 342 342
23 21 19 16 14 13 11 9 7 5 3 3 2 1 1 1 1 0 360 359 360 0 360 360 359 359 359 359 359 358 358 357 354 351 350 351 355 357 357 357 359 3 7 8 8 10 10 9 8 5 2 2 2 357 350 343 339 338 339 342 344 344 343 341 339 339 339 339 339 339 339 339 339 339 339 338 338 338 338 339 339 339 340 341 341 340
22 20 18 15 13 11 10 8 6 5 3 2 2 1 1 1 0 0 360 360 360 360 360 359 359 360 0 1 2 0 358 356 353 350 350 352 355 357 358 358 360 3 6 8 10 13 13 13 11 9 8 7 5 358 349 343 340 340 343 346 346 345 343 341 340 339 339 339 338 338 338 338 338 338 337 337 337 336 336 337 337 337 338 338 338 338
21 18 16 15 13 11 9 7 6 5 4 3 2 2 2 0 360 359 359 359 359 359 358 358 359 0 2 4 4 2 359 357 354 352 351 351 354 358 359 359 359 1 3 6 10 13 15 14 13 12 11 11 7 1 353 349 347 348 349 350 348 346 344 342 341 340 339 338 338 338 338 338 337 337 336 335 334 334 334 334 335 335 335 335 336 336
19 17 15 13 12 10 8 7 6 5 5 5 5 4 3 1 360 358 358 357 357 356 355 356 357 0 3 6 6 3 360 359 358 356 353 350 353 358 359 359 359 359 1 5 8 11 14 15 15 13 13 11 9 5 1 358 357 357 356 355 352 350 347 345 343 342 340 339 338 337 337 336 336 335 334 333 332 332 331 331 331 332 332 333 333 334
18 16 14 12 11 9 8 6 5 4 4 4 4 4 3 2 360 358 357 356 355 354 353 354 356 359 3 6 7 5 2 1 360 358 355 352 354 357 360 360 358 357 360 3 6 8 11 13 14 14 13 11 10 8 6 5 5 4 2 360 357 354 351 349 346 344 342 340 338 337 336 336 335 334 333 332 330 329 328 328 328 328 329 330 330 331
17 15 13 12 10 9 8 6 4 3 2 2 2 3 2 1 359 357 356 355 354 353 354 355 356 358 0 4 6 7 4 3 1 359 356 354 355 357 360 359 357 356 357 1 4 6 8 10 12 12 12 11 10 10 10 10 9 8 7 4 1 358 355 352 350 347 344 342 339 337 336 335 334 333 332 330 329 328 326 325 324 324 325 326 327 327
16 14 13 11 10 8 6 5 3 2 2 1 1 1 1 359 358 356 355 355 354 355 355 356 356 357 358 1 5 6 5 4 2 360 357 355 355 356 358 359 358 355 355 358 2 4 5 7 8 9 10 11 11 11 11 11 11 10 9 6 4 1 358 356 354 351 348 344 341 338 336 335 334 333 332 330 329 327 325 323 322 321 321 322 323 324
15 13 11 10 9 7 6 5 3 3 3 2 0 359 358 357 355 355 356 356 356 356 356 356 356 355 356 359 3 6 7 5 2 359 359 357 355 354 356 358 358 356 354 356 358 0 2 3 4 5 7 9 11 11 12 11 11 10 9 7 5 3 1 359 357 354 350 347 343 340 338 336 335 334 333 332 330 328 326 324 321 319 318 319 321 322
13 11 10 9 8 6 5 4 4 3 3 2 360 358 357 356 356 356 357 357 357 357 357 357 356 355 355 357 360 4 8 6 1 359 360 358 355 352 354 356 357 356 354 353 355 358 359 359 359 1 3 7 10 11 11 10 10 10 9 8 7 5 3 1 359 356 353 350 347 344 341 339 338 337 336 334 332 331 328 326 322 319 317 318 320 321
11 9 8 7 6 5 4 3 3 3 2 1 360 358 357 357 357 357 356 356 356 357 358 357 357 356 355 355 357 3 7 6 2 359 0 358 354 352 354 355 356 355 353 352 353 355 357 357 357 357 360 4 8 10 9 9 9 8 8 8 8 7 5 3 0 358 355 353 350 348 346 344 342 341 340 338 336 334 333 330 326 321 319 319 320 322
8 6 5 5 5 4 3 3 3 2 2 1 359 358 357 357 357 356 356 356 357 358 358 357 356 356 355 355 356 359 3 5 2 0 0 356 352 351 353 352 353 353 352 351 349 349 351 355 356 357 358 1 5 7 7 7 7 7 6 7 7 7 6 4 1 359 358 356 354 352 350 349 347 346 345 343 341 339 338 336 331 326 322 321 322 323
5 5 4 4 3 3 3 2 2 2 1 1 360 359 358 357 357 357 357 357 358 358 358 357 357 356 356 356 353 352 355 2 3 1 1 354 349 348 350 348 348 350 351 349 345 341 341 346 352 357 358 359 2 4 5 5 5 4 4 5 6 6 5 4 2 0 360 359 358 357 355 354 353 351 350 348 346 344 343 341 338 332 328 326 327 327
4 4 4 3 2 2 2 1 1 1 0 360 360 359 359 358 357 357 357 357 358 358 358 358 358 358 358 356 352 349 352 360 2 2 359 352 347 347 349 346 345 347 349 348 343 337 332 334 342 350 355 356 358 360 2 2 2 2 2 2 3 4 4 3 1 1 1 1 0 360 359 359 358 357 355 353 352 350 348 347 344 340 335 333 332 332
4 4 4 3 2 1 0 360 359 359 359 359 359 359 359 358 358 358 358 358 358 358 358 358 358 358 358 357 355 355 358 1 3 1 357 350 345 344 346 346 345 345 347 346 343 338 331 329 334 341 347 351 354 356 358 359 360 0 0 360 360 1 2 2 1 1 1 2 2 2 2 1 1 0 359 358 356 355 354 352 351 348 344 341 338 336
3 3 3 2 1 360 359 359 358 358 357 357 357 357 357 358 358 359 359 359 359 359 360 0 360 358 357 356 356 358 1 3 4 2 357 349 343 341 343 344 344 345 345 344 342 340 336 334 335 336 340 346 351 354 355 355 356 358 358 358 357 358 360 0 360 359 0 2 3 3 4 4 4 3 3 1 0 359 358 357 356 355 355 350 345 341
3 2 1 0 359 358 358 358 357 357 357 356 356 355 356 357 357 358 358 359 360 1 2 3 3 2 359 357 355 356 359 2 4 2 356 348 342 340 340 342 344 344 343 342 341 340 338 338 337 336 337 340 346 351 354 354 354 354 356 357 357 357 358 359 358 358 359 0 1 3 4 5 5 6 5 4 3 2 1 360 359 360 1 360 355 349
2 1 360 359 359 358 357 357 357 357 356 356 355 354 354 355 356 357 358 358 359 1 4 6 7 7 5 2 359 357 358 1 2 0 353 347 342 339 338 340 343 344 342 341 341 340 338 338 339 339 338 338 340 345 350 353 353 353 353 355 355 356 357 358 357 357 357 358 359 1 3 4 5 6 7 6 5 4 3 3 2 2 2 3 3 359
1 360 359 359 358 358 357 357 357 357 356 356 355 354 354 355 356 356 357 358 359 1 5 8 10 11 10 9 7 5 3 3 1 357 352 348 345 342 339 340 344 346 344 342 341 341 339 338 338 340 340 337 337 339 343 348 350 351 351 351 352 353 354 356 357 357 357 357 358 359 1 1 2 4 6 6 5 4 4 4 3 2 1 2 4 3
0 360 359 359 358 358 358 358 358 358 357 356 355 354 354 354 355 356 357 358 359 2 5 9 11 13 14 14 13 12 9 6 1 358 354 351 350 348 346 345 347 349 348 345 343 342 340 337 336 336 337 338 338 338 340 343 345 346 347 348 349 350 351 354 355 356 356 357 358 359 360 0 1 2 3 6 7 6 5 4 3 2 360 359 360 1
0 360 359 359 359 359 359 359 359 359 358 357 355 355 355 355 355 356 357 359 1 3 5 8 11 13 15 17 17 15 12 8 4 1 359 357 355 354 352 351 351 351 352 351 349 346 342 339 336 334 334 334 336 339 341 343 343 343 344 345 347 348 350 352 353 354 355 357 357 357 358 359 359 359 360 3 5 5 4 4 4 3 1 358 356 356
1 1 0 0 360 0 1 1 0 359 358 357 355 355 355 355 355 356 358 0 2 4 6 8 10 13 15 17 17 16 13 10 7 5 2 0 359 359 358 356 354 353 354 354 353 350 346 342 340 338 335 334 334 335 338 341 343 344 342 341 341 343 347 350 352 353 355 356 356 355 355 356 356 356 357 360 2 3 3 2 2 3 2 360 357 355
1 1 2 1 1 2 2 2 1 360 358 357 355 355 355 356 356 358 360 2 4 4 5 7 9 12 15 17 18 16 14 12 9 7 5 3 2 2 2 0 358 357 357 356 356 355 352 347 344 342 341 339 337 336 337 340 343 343 342 339 337 339 343 347 350 352 354 355 356 355 354 353 353 353 355 357 359 2 3 2 1 1 1 0 359 357
3 3 3 3 3 3 3 3 2 1 359 358 357 357 358 359 0 2 4 5 6 6 6 7 9 12 14 16 17 16 15 13 11 9 7 5 4 4 4 4 3 2 0 359 358 358 357 353 349 346 345 342 340 338 338 341 343 343 341 339 338 340 343 348 352 354 353 353 354 354 352 351 350 350 351 353 356 360 3 2 1 0 359 359 358 358
4 5 5 5 5 5 4 4 3 1 360 359 360 0 2 3 5 7 8 9 9 9 9 9 10 11 12 12 14 15 15 14 11 9 7 6 5 5 5 6 7 6 4 1 359 358 359 357 354 352 350 348 345 341 340 341 342 342 341 340 340 339 340 344 350 353 353 352 352 352 351 349 348 348 349 350 354 357 0 1 1 1 360 358 357 357
6 7 8 8 7 7 6 5 3 2 1 0 2 3 5 6 8 10 11 12 11 11 11 12 12 12 11 12 12 12 13 13 11 9 8 7 6 6 5 7 7 8 6 4 0 358 358 358 357 357 356 353 349 346 344 342 341 340 341 342 342 341 339 342 346 349 350 351 352 351 350 349 347 347 347 349 353 356 359 360 1 1 1 359 358 356
9 10 11 10 9 8 7 6 4 3 3 2 4 6 8 9 11 12 13 13 14 14 13 14 13 12 12 12 11 10 10 10 10 9 8 8 7 6 6 6 7 7 7 5 3 1 358 356 356 358 358 356 353 350 347 344 342 341 341 344 345 345 344 346 347 347 348 349 349 349 349 348 347 346 346 348 351 354 357 359 359 359 359 359 357 356
12 13 13 12 11 9 8 6 5 4 4 4 5 7 9 11 13 14 15 15 15 15 15 15 14 12 11 10 9 8 7 8 8 8 7 7 7 6 6 6 6 6 6 5 4 4 1 358 357 357 356 355 353 352 350 347 344 343 344 346 347 347 347 348 348 348 347 346 346 346 347 347 347 346 345 346 348 352 355 357 358 358 357 357 356 355
14 14 14 13 11 10 8 7 6 5 5 5 6 8 10 12 14 16 17 17 18 17 16 15 15 14 13 11 8 6 4 4 4 5 6 5 5 5 5 5 5 5 5 4 3 3 3 2 1 359 356 352 350 350 350 349 348 346 346 347 348 347 346 346 347 348 347 345 344 344 345 346 346 345 344 345 346 349 353 356 358 358 357 355 354 354
15 15 14 13 12 10 9 7 6 6 6 7 8 9 12 14 16 18 19 19 19 18 16 14 14 14 13 11 8 6 3 2 2 2 3 4 4 4 4 4 4 4 4 4 3 2 2 3 3 1 358 354 349 346 347 349 349 349 348 349 348 346 344 345 346 347 347 345 344 344 344 343 343 342 342 342 344 346 350 354 357 358 357 355 353 353
15 15 14 13 11 10 9 7 7 6 7 8 8 10 14 16 18 19 20 20 20 18 15 14 14 13 11 9 8 6 4 2 2 2 2 3 3 3 3 2 2 3 3 3 3 2 2 2 3 2 360 356 350 346 346 348 349 350 350 349 348 346 344 344 345 345 345 344 343 343 342 342 341 340 340 339 339 342 346 351 355 357 357 355 354 352
16 15 14 13 11 10 8 7 7 7 7 8 9 11 14 18 20 21 21 21 20 18 15 14 13 11 9 8 6 5 4 3 2 2 2 3 3 3 3 3 3 2 1 1 2 2 0 0 1 2 2 358 353 348 346 347 349 350 350 349 348 346 344 343 343 343 343 342 341 341 341 341 341 341 340 338 338 339 343 347 351 355 357 356 354 353
16 15 14 13 11 10 8 7 7 7 8 9 10 12 15 19 21 22 22 21 19 17 15 14 13 10 8 6 5 4 3 3 2 2 2 3 3 3 3 3 2 1 358 358 358 357 356 354 354 356 0 1 357 351 348 348 349 349 347 348 348 347 344 343 342 342 341 340 340 340 340 341 341 341 341 338 337 337 339 342 347 352 356 356 354 353